This demonstration page uses our WeatherBlox Daily Observations layout. Learn more.

38.88101, -77.10428

Hourly Observations for March 8, 2016

Temp ( °F °C ) Dew Point ( °F °C ) Humidity (%) Winds ( mph kmh ) Pressure ( in mb ) Visibility ( mi km ) Precip ( " mm )
12:52 am 00:52 Cloudy 54 12.2 39 3.9 57 57 WSW 3 6 30.15 1021 10 16.09344 0 0
1:52 am 01:52 Cloudy 52 11.1 40 4.4 64 64 Calm 30.15 1021 10 16.09344 0 0
2:52 am 02:52 Cloudy 51 10.6 41 5 69 69 WSW 3 6 30.12 1020 10 16.09344 0 0
3:52 am 03:52 Cloudy 48 8.9 42 5.6 80 80 Calm 30.15 1021 8 12.874752 0 0
4:52 am 04:52 Partly Cloudy 48 8.9 40 4.4 74 74 Calm 30.15 1021 10 16.09344 0 0
5:52 am 05:52 Partly Cloudy 49 9.4 41 5 74 74 SSW 5 7 30.15 1021 10 16.09344 0 0
6:52 am 06:52 Mostly Cloudy 47 8.3 42 5.6 83 83 SSW 3 6 30.18 1022 10 16.09344 0 0
7:52 am 07:52 Mostly Cloudy 51 10.6 42 5.6 71 71 S 7 11 30.18 1022 10 16.09344 0 0
8:52 am 08:52 Cloudy 54 12.2 41 5 62 62 S 7 11 30.21 1023 10 16.09344 0 0
9:52 am 09:52 Cloudy 58 14.4 42 5.6 56 56 S 6 9 30.21 1023 10 16.09344 0 0
10:52 am 10:52 Cloudy 61 16.1 41 5 48 48 S 7 11 30.21 1023 10 16.09344 0 0
11:52 am 11:52 Mostly Cloudy 68 20 42 5.6 39 39 SE 3 6 30.18 1022 10 16.09344 0 0
12:52 pm 12:52 Mostly Cloudy 74 23.3 37 2.8 26 26 E 5 7 30.15 1021 10 16.09344 0 0
1:52 pm 13:52 Mostly Cloudy 74 23.3 39 3.9 28 28 Calm 30.12 1020 10 16.09344 0 0
2:52 pm 14:52 Partly Cloudy 78 25.6 39 3.9 25 25 NNE 3 6 30.12 1020 10 16.09344 0 0
3:16 pm 15:16 Sunny 78 25.6 37 2.8 23 23 W 13 20 30.12 1020 10 16.09344 0 0
3:52 pm 15:52 Partly Cloudy 79 26.1 37 2.8 22 22 WNW 6 9 30.09 1019 10 16.09344 0 0
4:52 pm 16:52 Partly Cloudy 73 22.8 39 3.9 29 29 S 7 11 30.09 1019 10 16.09344 0 0
5:52 pm 17:52 Mostly Cloudy 68 20 38 3.3 33 33 S 9 15 30.09 1019 10 16.09344 0 0
6:52 pm 18:52 Mostly Cloudy 63 17.2 40 4.4 43 43 SSE 6 9 30.09 1019 10 16.09344 0 0
7:52 pm 19:52 Partly Cloudy 64 17.8 39 3.9 40 40 S 8 13 30.12 1020 10 16.09344 0 0
8:52 pm 20:52 Partly Cloudy 60 15.6 40 4.4 47 47 S 8 13 30.12 1020 10 16.09344 0 0
9:52 pm 21:52 Mostly Clear 58 14.4 40 4.4 51 51 S 8 13 30.12 1020 10 16.09344 0 0
10:52 pm 22:52 Mostly Cloudy 56 13.3 40 4.4 55 55 S 8 13 30.09 1019 10 16.09344 0 0
11:52 pm 23:52 Mostly Cloudy 56 13.3 41 5 57 57 S 7 11 30.12 1020 10 16.09344 0 0

Powered by AerisWeather